Location: Atlantic Beach
(40.5890°N, 73.7290°W)
Time: 06:07:57
(UTC+00:00)

CZ-2C R/B - Pass Details

Date: 29 October 2020
Orbit: 703 x 909 km, 98.1° (Epoch: 27 November)

Event Time Altitude Azimuth Distance (km) Brightness Sun altitude
Rises 22:37:43 0° 134° (SE) 3,522 6.1 -8.8°
Reaches altitude 10° 22:40:27 10° 124° (ESE) 2,575 5.3 -9.3°
Maximum altitude 22:45:17 28° 67° (ENE) 1,591 4.1 -10.2°
Drops below altitude 10° 22:49:59 10° 10° (N) 2,515 5.5 -11.1°
Sets 22:52:37 0° 359° (N) 3,426 6.3 -11.6°
